Date,TemperatureHighF,TemperatureAvgF,TemperatureLowF,DewpointHighF,DewpointAvgF,DewpointLowF,HumidityHigh,HumidityAvg,HumidityLow,PressureMaxIn,PressureMinIn,WindSpeedMaxMPH,WindSpeedAvgMPH,GustSpeedMaxMPH,PrecipitationSumIn
2013-1-1,40.8,36.5,27.2,32.0,24.6,13.0,72,62,53,29.95,29.77,19,9,26,0.04
2013-1-2,30.9,26.9,21.7,19.0,14.3,8.0,68,60,51,30.09,29.93,17,7,26,0.00
2013-1-3,30.2,22.1,14.4,21.0,9.2,4.0,71,58,42,30.16,30.05,16,5,20,0.00
2013-1-4,39.1,35.8,30.1,31.0,26.6,22.0,76,70,56,30.04,29.88,20,9,29,0.00
2013-1-5,43.0,37.3,26.5,29.0,25.9,23.0,87,64,50,30.28,29.90,19,6,24,0.00
2013-1-6,43.1,36.2,26.6,38.0,32.9,23.0,95,88,79,30.23,29.96,18,4,23,0.04
2013-1-7,42.5,35.8,25.6,35.0,30.1,24.0,98,81,60,30.43,29.99,14,4,18,0.00
2013-1-8,47.4,43.8,38.0,39.0,36.8,32.0,90,77,65,30.43,30.33,26,9,32,0.00
2013-1-9,49.8,41.2,27.4,47.0,38.5,26.0,98,90,80,30.41,30.06,19,6,29,0.00
2013-1-10,46.9,43.3,37.1,40.0,29.8,27.0,81,60,47,30.52,30.12,17,7,29,0.00
2013-1-11,42.7,38.1,31.7,40.0,33.0,26.0,96,82,68,30.53,30.22,6,2,13,0.18
2013-1-12,46.1,43.2,40.4,45.0,42.6,39.0,98,97,96,30.22,30.11,14,4,14,0.08
2013-1-13,52.2,47.4,43.8,52.0,47.1,44.0,99,99,97,30.18,30.05,11,4,14,0.01
2013-1-14,53.6,50.5,45.3,53.0,47.9,36.0,99,92,61,30.24,29.98,19,6,21,0.01
2013-1-15,44.6,39.6,37.6,39.0,36.2,33.0,96,87,74,30.29,30.20,9,2,14,0.21
2013-1-16,41.6,39.3,37.0,41.0,38.3,34.0,98,96,82,30.23,29.72,13,4,18,0.61
2013-1-17,42.4,40.2,36.0,39.0,32.9,27.0,94,76,65,30.08,29.88,20,5,20,0.00
2013-1-18,35.3,25.2,15.6,29.0,11.1,1.0,95,59,32,30.51,30.01,19,6,23,0.00
2013-1-19,48.9,42.9,28.9,46.0,35.3,19.0,90,74,64,30.45,29.98,29,16,38,0.00
2013-1-20,51.9,46.8,32.7,47.0,37.5,16.0,92,71,43,29.98,29.65,31,13,35,0.00
2013-1-21,32.4,29.3,26.3,30.0,18.1,10.0,96,66,45,30.12,29.77,14,4,21,0.00
2013-1-22,29.3,23.9,17.4,28.0,10.4,-4.0,96,60,34,30.10,29.74,22,6,28,0.00
2013-1-23,18.0,15.1,12.1,5.0,-1.5,-8.0,62,48,40,30.20,30.09,20,9,34,0.00
2013-1-24,20.9,15.3,9.7,1.0,-2.5,-5.0,56,46,35,30.25,30.09,25,9,31,0.00
2013-1-25,27.1,20.0,14.1,20.0,4.3,-99.9,91,53,43,30.34,30.05,19,-5,29,0.00
2013-1-26,26.1,21.5,17.6,20.0,11.1,-2.0,92,67,35,30.25,30.00,19,6,26,0.00
2013-1-27,31.3,24.2,17.7,9.0,7.0,4.0,61,49,35,30.49,30.25,25,7,31,0.00
2013-1-28,35.7,28.6,16.1,35.0,20.2,7.0,97,73,45,30.48,30.00,6,1,11,0.11
2013-1-29,39.9,36.5,33.0,39.0,35.2,32.0,98,95,88,30.21,30.00,8,1,11,0.03
2013-1-30,53.6,47.4,39.3,53.0,46.6,38.0,99,97,94,30.18,29.58,19,7,23,0.02
2013-1-31,56.1,47.1,35.0,56.0,38.3,-99.9,99,75,43,29.66,29.13,34,6,42,0.22
2013-2-1,35.1,31.0,25.0,23.0,14.3,8.0,68,50,40,30.13,29.66,22,10,35,0.00
2013-2-2,33.6,27.8,23.0,29.0,15.4,8.0,93,61,48,30.29,30.07,15,9,29,0.00
2013-2-3,34.2,28.1,20.8,28.0,23.6,18.0,93,83,65,30.07,29.71,16,4,19,0.00
2013-2-4,31.3,28.8,26.9,24.0,14.9,8.0,87,57,44,29.97,29.73,21,8,26,0.00
2013-2-5,30.4,27.6,25.8,29.0,20.2,8.0,95,76,43,30.04,29.92,14,3,20,0.00
2013-2-6,38.6,33.9,30.2,33.0,26.6,10.0,96,77,43,30.29,29.91,17,4,23,0.04
2013-2-7,30.9,27.4,24.6,20.0,12.3,7.0,84,54,40,30.54,30.30,17,4,19,0.00
2013-2-8,34.2,31.0,25.1,34.0,23.6,-99.9,98,87,80,30.48,29.26,32,-39,47,0.12
2013-2-9,31.7,22.5,18.9,31.0,19.0,11.0,98,87,71,30.17,29.24,30,13,45,0.00
2013-2-10,33.8,23.9,16.7,21.0,14.7,9.0,94,69,52,30.41,30.17,18,5,28,0.00
2013-2-11,48.7,35.9,15.4,49.0,33.8,-99.9,99,94,89,30.39,29.63,16,-4,24,0.17
2013-2-12,45.7,40.6,35.9,46.0,34.8,29.0,99,80,62,29.91,29.63,19,7,24,0.17
2013-2-13,39.9,35.6,29.6,31.0,27.3,25.0,90,73,59,29.91,29.66,11,4,19,0.00
2013-2-14,42.9,34.9,26.2,32.0,29.5,25.0,97,82,51,30.04,29.68,14,3,16,0.14
2013-2-15,44.9,36.1,23.3,40.0,34.1,22.0,98,92,81,30.08,29.96,14,4,18,0.01
2013-2-16,38.4,34.0,28.1,37.0,32.8,27.0,98,95,83,29.96,29.64,14,4,18,0.09
2013-2-17,34.7,25.7,19.7,33.0,17.9,5.0,95,74,44,29.72,29.37,31,14,46,0.11
2013-2-18,32.0,25.9,18.7,16.0,8.0,5.0,60,48,33,30.22,29.73,25,12,36,0.00
2013-2-19,46.9,40.2,30.3,46.0,34.0,17.0,98,79,55,30.23,29.63,14,6,31,0.73
2013-2-20,44.6,35.0,28.2,44.0,23.6,12.0,98,65,45,29.85,29.61,22,10,29,0.73
2013-2-21,34.3,30.1,27.4,20.0,17.3,16.0,68,59,48,30.16,29.82,19,10,28,0.00
2013-2-22,39.1,33.9,29.9,29.0,25.6,20.0,82,72,61,30.39,30.17,13,5,22,0.00
2013-2-23,39.6,35.9,30.0,39.0,32.6,28.0,98,87,77,30.36,29.84,21,6,24,0.38
2013-2-24,44.6,39.3,32.4,44.0,38.9,32.0,99,98,98,29.89,29.58,20,7,23,0.48
2013-2-25,41.5,34.4,29.9,35.0,31.0,28.0,98,88,65,30.28,29.89,10,3,18,0.06
2013-2-26,43.0,36.8,29.1,37.0,30.4,24.0,97,79,50,30.36,30.14,20,4,20,0.06
2013-2-27,45.5,43.2,40.0,45.0,42.4,36.0,99,97,86,30.13,29.59,37,14,42,0.36
2013-2-28,47.5,41.5,38.5,42.0,39.4,38.0,99,92,75,29.67,29.53,13,3,19,0.02
2013-3-1,44.8,39.4,35.1,39.0,35.0,31.0,97,84,68,29.70,29.52,17,3,17,0.02
2013-3-2,41.2,38.1,35.2,34.0,30.3,28.0,83,74,63,29.71,29.65,12,5,17,0.00
2013-3-3,38.3,36.3,33.7,32.0,28.6,-99.9,90,76,67,29.66,29.60,11,-6,13,0.00
2013-3-4,41.2,36.1,31.7,31.0,26.8,24.0,90,70,58,29.74,29.61,16,8,28,0.00
2013-3-5,44.6,37.5,30.9,36.0,30.7,26.0,96,77,64,30.07,29.74,15,6,20,0.00
2013-3-6,41.9,38.6,33.7,38.0,35.8,33.0,96,89,82,30.05,29.88,22,10,37,0.01
2013-3-7,36.8,35.4,33.6,36.0,35.1,33.0,99,98,97,29.90,29.84,30,16,33,0.37
2013-3-8,41.6,35.5,33.3,39.0,34.3,32.0,99,96,70,30.06,29.84,24,13,33,0.15
2013-3-9,41.3,37.9,32.7,35.0,32.5,31.0,94,81,71,30.34,30.05,23,10,30,0.15
2013-3-10,44.5,38.1,32.7,36.0,33.4,31.0,95,83,70,30.41,30.33,9,4,14,0.00
2013-3-11,46.2,41.0,35.7,42.0,38.4,34.0,97,90,84,30.36,30.23,12,4,15,0.00
2013-3-12,52.8,46.8,42.5,53.0,44.8,-99.9,99,95,91,30.23,29.80,18,-3,35,0.51
2013-3-13,52.7,44.6,35.3,53.0,38.2,28.0,99,79,56,29.83,29.73,15,6,23,0.89
2013-3-14,39.0,34.3,27.2,34.0,22.8,9.0,83,64,44,29.87,29.76,21,7,32,0.00
2013-3-15,39.6,32.7,24.9,33.0,20.4,12.0,78,61,40,29.92,29.73,21,9,28,0.00
2013-3-16,38.8,35.8,32.7,32.0,22.5,6.0,84,60,26,29.91,29.73,12,5,23,0.00
2013-3-17,39.7,34.5,30.1,29.0,19.5,10.0,85,57,32,30.32,29.91,14,4,20,0.00
2013-3-18,35.2,31.2,23.6,28.0,18.5,8.0,76,60,45,30.47,30.24,17,6,17,0.00
2013-3-19,44.8,38.5,33.3,45.0,37.5,28.0,99,96,74,30.24,29.52,25,11,32,0.44
2013-3-20,40.0,35.9,32.6,32.0,26.2,21.0,90,69,52,29.86,29.71,23,9,30,0.44
2013-3-21,43.0,34.6,25.0,31.0,28.6,24.0,97,80,55,29.86,29.60,15,4,19,0.00
2013-3-22,38.9,34.0,28.6,31.0,25.7,20.0,97,73,52,29.79,29.62,16,7,25,0.07
2013-3-23,43.6,38.4,33.4,27.0,24.3,21.0,74,58,41,29.82,29.69,22,9,29,0.00
2013-3-24,46.9,37.7,31.4,32.0,27.0,24.0,90,66,43,29.87,29.76,15,5,23,0.00
2013-3-25,44.2,37.6,29.7,37.0,32.4,28.0,95,82,67,29.78,29.45,21,6,28,0.02
2013-3-26,46.4,40.3,34.6,35.0,32.0,29.0,93,73,53,29.81,29.46,14,6,20,0.01
2013-3-27,50.4,43.0,35.8,35.0,30.0,27.0,79,61,43,29.87,29.77,20,5,27,0.01
2013-3-28,48.1,42.1,37.6,39.0,34.8,29.0,93,77,49,30.05,29.86,13,5,17,0.01
2013-3-29,53.6,46.1,39.9,38.0,36.1,33.0,84,69,47,30.07,30.02,14,5,20,0.01
2013-3-30,52.2,46.4,42.5,37.0,34.2,31.0,79,64,45,30.12,30.05,14,5,21,0.00
2013-3-31,49.6,44.9,31.4,45.0,39.2,29.0,97,80,69,30.15,29.76,23,7,26,0.09
2013-4-1,50.4,46.1,38.8,47.0,42.4,18.0,98,88,41,29.81,29.61,22,12,31,0.05
2013-4-2,41.2,37.5,33.0,22.0,18.1,13.0,56,46,34,30.01,29.81,26,9,33,0.05
2013-4-3,44.4,38.2,33.3,26.0,18.2,14.0,52,45,36,30.20,30.00,26,10,31,0.00
2013-4-4,43.6,38.5,33.3,36.0,24.6,17.0,84,58,39,30.35,30.15,18,9,25,0.00
2013-4-5,51.0,43.6,40.8,44.0,38.6,30.0,95,84,51,30.15,29.68,16,6,24,0.11
2013-4-6,46.7,40.1,34.3,31.0,21.8,10.0,76,50,24,30.37,29.86,15,7,23,0.11
2013-4-7,47.2,42.2,25.7,44.0,36.5,24.0,96,81,62,30.38,30.11,16,8,22,0.00
2013-4-8,62.0,51.3,45.2,47.0,44.8,42.0,95,79,55,30.14,30.02,14,6,16,0.00
2013-4-9,69.0,54.1,45.3,53.0,47.9,43.0,98,81,49,30.12,29.88,20,8,28,0.00
2013-4-10,61.8,49.7,43.3,52.0,46.0,43.0,97,88,70,30.04,29.87,12,5,28,0.02
2013-4-11,52.2,47.0,44.6,47.0,42.7,37.0,98,86,66,30.13,29.80,12,4,16,0.06
2013-4-12,44.9,42.7,38.8,43.0,38.1,31.0,98,85,63,30.14,29.70,27,10,34,1.10
2013-4-13,50.1,42.6,39.3,42.0,39.9,38.0,98,90,69,29.96,29.68,14,6,24,1.14
2013-4-14,55.0,48.9,43.5,43.0,38.3,31.0,90,68,42,30.21,29.96,17,6,26,0.00
2013-4-15,51.0,45.0,40.4,42.0,37.9,32.0,93,76,63,30.43,30.21,10,4,14,0.00
2013-4-16,53.5,47.5,37.5,48.0,44.2,37.0,97,88,77,30.44,30.17,18,7,22,0.00
2013-4-17,62.2,51.5,38.2,53.0,46.9,37.0,98,86,59,30.34,30.12,23,6,28,0.04
2013-4-18,52.6,45.5,31.6,48.0,40.7,31.0,97,84,60,30.43,30.19,16,6,18,0.00
2013-4-19,58.2,54.6,50.5,58.0,53.9,49.0,99,97,93,30.18,29.79,20,9,33,0.01
2013-4-20,58.6,51.7,46.9,58.0,47.4,36.0,99,86,55,30.19,29.71,19,9,35,0.15
2013-4-21,50.3,43.5,32.9,40.0,29.0,24.0,90,58,42,30.68,30.20,17,5,25,0.15
2013-4-22,49.6,41.9,30.8,40.0,34.6,29.0,95,76,55,30.72,30.54,18,7,27,0.00
2013-4-23,47.0,44.4,41.8,46.0,43.2,37.0,99,95,82,30.54,29.97,18,8,23,0.91
2013-4-24,54.7,47.5,43.5,49.0,44.2,-99.9,99,91,76,29.99,29.83,22,0,28,1.04
2013-4-25,57.9,50.8,37.9,53.0,45.5,37.0,98,83,51,30.25,29.93,18,6,25,0.04
2013-4-26,57.3,49.0,36.3,45.0,40.5,35.0,97,74,52,30.43,30.25,11,4,16,0.04
2013-4-27,55.2,46.7,34.1,46.0,37.3,32.0,98,73,44,30.44,30.34,12,3,16,0.00
2013-4-28,58.0,48.4,34.5,49.0,43.8,34.0,97,85,67,30.37,30.28,10,3,14,0.00
2013-4-29,59.3,49.6,40.1,50.0,40.1,29.0,98,74,33,30.32,30.26,8,2,13,0.00
2013-4-30,59.1,48.2,33.9,46.0,38.0,33.0,97,71,41,30.37,30.26,10,3,15,0.00
2013-5-1,61.6,50.5,38.2,51.0,45.2,35.0,98,83,64,30.48,30.36,15,3,19,0.00
2013-5-2,65.1,52.7,36.7,52.0,45.3,36.0,98,78,48,30.48,30.38,12,3,15,0.00
2013-5-3,53.6,47.8,37.7,46.0,43.2,36.0,97,85,71,30.47,30.36,22,5,25,0.00
2013-5-4,55.5,47.7,38.6,46.0,42.0,38.0,98,81,63,30.35,30.30,18,5,24,0.00
2013-5-5,56.9,48.7,41.5,46.0,43.0,40.0,96,82,60,30.30,30.26,19,6,21,0.00
2013-5-6,62.2,50.1,43.9,54.0,47.4,43.0,98,91,72,30.30,30.19,15,3,15,0.00
2013-5-7,68.0,56.1,45.7,62.0,54.3,45.0,99,94,80,30.20,30.16,10,3,12,0.00
2013-5-8,66.8,60.8,55.0,64.0,59.1,55.0,99,94,87,30.20,30.06,15,6,23,0.15
2013-5-9,63.6,56.9,52.6,63.0,55.1,-99.9,99,96,91,30.05,29.89,12,-7,16,0.01
2013-5-10,71.6,60.0,53.9,60.0,55.9,54.0,99,87,57,29.99,29.90,16,6,17,0.00
2013-5-11,60.3,57.8,54.9,60.0,57.0,55.0,99,97,89,29.97,29.74,18,8,23,0.62
2013-5-12,62.7,57.8,53.9,60.0,53.8,42.0,100,87,59,29.82,29.64,20,8,30,0.02
2013-5-13,54.1,52.1,47.1,44.0,37.6,31.0,76,58,46,30.01,29.83,22,9,29,0.02
2013-5-14,54.9,50.8,45.2,45.0,38.4,32.0,82,63,47,30.07,29.99,17,7,22,0.00
2013-5-15,58.3,52.9,44.9,55.0,48.7,43.0,97,86,70,30.08,29.71,18,7,27,0.02
2013-5-16,69.9,61.7,51.0,54.0,50.7,46.0,99,69,46,29.79,29.67,21,9,27,0.02
2013-5-17,66.0,57.5,45.5,52.0,45.7,-99.9,95,68,46,30.22,29.79,11,-7,17,0.00
2013-5-18,63.3,54.3,40.1,54.0,49.9,39.0,96,85,62,30.33,30.22,14,5,16,0.00
2013-5-19,64.2,56.2,43.8,55.0,51.1,43.0,97,84,62,30.38,30.25,15,4,16,0.10
2013-5-20,68.0,60.9,56.0,64.0,59.7,55.0,99,95,83,30.24,29.96,20,8,25,0.21
2013-5-21,68.6,61.7,55.9,64.0,60.0,55.0,99,94,83,29.98,29.88,15,4,22,0.00
2013-5-22,67.6,58.8,53.2,64.0,57.7,52.0,99,96,86,29.97,29.92,12,5,16,0.00
2013-5-23,64.7,62.1,58.9,63.0,61.3,59.0,99,97,93,29.98,29.88,22,11,27,0.19
2013-5-24,63.9,60.6,55.9,64.0,60.6,56.0,100,100,98,29.87,29.70,17,6,31,0.51
2013-7-18,90.0,82.2,74.8,79.0,75.8,74.0,98,81,67,29.99,29.96,8,3,9,0.00
2013-7-19,84.8,79.5,75.8,80.0,76.7,75.0,98,91,82,29.96,29.78,21,11,31,0.00
2013-7-20,82.1,79.0,75.0,77.0,75.9,74.0,96,90,81,29.80,29.69,22,13,31,0.00
2013-7-21,80.1,73.7,67.0,74.0,69.9,66.0,97,88,70,29.98,29.79,6,2,10,0.08
2013-7-22,79.7,71.9,67.0,74.0,70.0,66.0,99,94,82,29.99,29.88,9,3,12,0.08
2013-7-23,79.6,75.0,70.7,77.0,74.0,70.0,99,96,90,29.86,29.57,19,7,24,0.00
2013-7-24,84.5,77.1,70.9,75.0,71.9,68.0,98,85,60,29.88,29.58,11,4,14,0.00
2013-7-25,72.8,66.6,63.0,68.0,62.5,60.0,96,87,77,30.02,29.88,14,6,19,0.09
2013-7-26,69.2,66.8,64.3,68.0,65.9,64.0,98,96,93,30.03,29.86,15,5,22,0.25
2013-7-27,76.5,71.0,65.4,71.0,68.7,64.0,97,92,80,30.08,30.01,13,6,18,0.25
2013-7-28,79.8,72.5,69.6,75.0,71.1,69.0,99,95,80,30.02,29.93,15,3,20,0.01
2013-7-29,77.8,72.2,68.3,74.0,70.9,68.0,98,95,88,30.05,29.99,10,3,14,0.01
2013-7-30,78.2,72.4,65.6,69.0,64.6,61.0,96,77,55,30.09,30.02,15,5,21,0.00
2013-7-31,77.9,70.7,63.6,66.0,64.1,60.0,97,80,54,30.12,30.06,9,3,14,0.00
2013-8-1,76.2,68.8,60.7,71.0,66.1,60.0,98,91,73,30.06,29.89,12,3,13,0.05
2013-8-2,78.1,71.1,64.9,71.0,67.5,64.0,98,89,71,29.90,29.80,21,6,21,0.01
2013-8-3,73.4,70.6,67.3,70.0,67.4,66.0,96,89,79,29.90,29.81,13,7,17,0.03
2013-8-4,76.3,70.5,64.6,67.0,62.1,58.0,95,76,55,29.86,29.78,14,4,17,0.03
2013-8-5,72.0,66.6,59.1,61.0,57.5,49.0,91,73,45,30.04,29.87,11,4,18,0.00
2013-8-6,75.5,65.4,52.6,61.0,55.7,49.0,97,74,42,30.17,30.03,7,2,11,0.00
2013-8-7,74.4,63.7,50.5,65.0,57.3,50.0,97,81,48,30.20,30.15,8,2,12,0.00
2013-8-8,75.4,70.3,60.6,71.0,67.6,58.0,98,91,79,30.16,30.06,16,5,21,0.05
2013-8-9,73.4,72.0,70.6,73.0,71.2,70.0,98,97,95,30.09,29.82,19,8,25,0.02
2013-8-10,79.6,74.4,70.2,73.0,67.4,60.0,98,80,57,30.00,29.81,15,7,19,0.02
2013-8-11,76.4,69.0,61.8,63.0,57.8,52.0,90,69,45,30.07,30.00,13,3,15,0.00
2013-8-12,72.8,67.6,59.7,70.0,65.9,59.0,98,94,87,30.05,29.93,9,2,14,0.11
2013-8-13,69.7,67.8,65.9,69.0,67.4,66.0,99,99,97,29.93,29.68,6,1,18,0.68
2013-8-14,72.7,67.6,64.3,67.0,60.2,55.0,99,79,55,29.95,29.68,19,4,23,0.69
2013-8-15,72.7,66.5,60.5,61.0,56.2,49.0,86,71,44,30.14,29.96,16,5,18,0.00
2013-8-16,74.0,67.7,61.4,67.0,62.9,56.0,97,85,54,30.21,30.12,15,4,19,0.00
2013-8-17,78.5,67.2,55.1,66.0,61.1,55.0,98,82,53,30.28,30.20,8,2,9,0.00
2013-8-18,75.5,64.9,56.2,68.0,60.8,55.0,98,87,59,30.27,30.09,7,1,12,0.10
2013-8-19,76.8,68.2,56.1,68.0,63.6,55.0,99,86,71,30.10,29.98,14,5,17,0.10
2013-8-20,81.3,73.7,67.0,70.0,66.6,64.0,94,79,61,30.10,29.99,11,5,15,0.00
2013-8-21,82.7,73.0,68.0,72.0,66.2,-99.9,94,82,57,30.15,30.05,10,-6,17,0.00
2013-8-22,75.9,72.5,70.4,72.0,70.7,69.0,98,94,85,30.06,29.86,14,8,20,0.00
2013-8-23,77.2,71.1,60.9,71.0,64.5,58.0,99,81,54,30.08,29.81,17,4,20,0.00
2013-8-24,74.6,65.2,50.0,61.0,54.9,48.0,96,72,44,30.34,30.09,16,3,16,0.00
2013-8-25,77.7,64.6,47.6,65.0,57.4,46.0,97,79,48,30.37,30.23,11,4,15,0.00
2013-8-26,72.6,69.8,67.3,68.0,65.9,62.0,94,87,78,30.23,29.92,25,11,30,0.00
2013-8-27,72.9,69.6,68.0,72.0,68.8,67.0,99,97,92,29.92,29.82,12,3,16,1.64
2013-8-28,74.9,69.9,67.0,72.0,68.4,67.0,99,95,86,29.93,29.85,7,2,11,1.64
2013-8-29,69.8,66.5,60.0,67.0,64.7,58.0,98,94,89,30.03,29.92,16,4,16,0.01
2013-8-30,72.1,65.8,58.5,68.0,63.6,57.0,98,92,83,30.01,29.88,13,5,18,0.01
2013-8-31,74.5,71.2,68.0,71.0,69.8,68.0,98,95,89,29.89,29.84,21,10,23,0.00
2013-9-1,75.6,72.3,70.3,73.0,71.1,69.0,98,96,90,29.90,29.84,18,8,23,0.00
2013-9-2,77.3,72.3,70.4,75.0,71.6,70.0,99,97,88,29.88,29.74,12,5,18,0.02
2013-9-3,76.3,70.8,67.6,74.0,70.2,67.0,100,97,89,29.82,29.71,10,3,11,0.01
2013-9-4,74.5,68.6,63.2,67.0,62.8,61.0,97,82,65,29.94,29.80,14,5,20,0.01
2013-9-5,72.9,66.4,53.2,67.0,62.6,52.0,97,88,76,30.12,29.89,11,4,15,0.03
2013-9-6,68.0,59.3,49.7,56.0,50.6,45.0,99,75,45,30.23,30.12,8,2,11,0.04
2013-9-7,70.0,63.8,48.8,59.0,54.5,47.0,94,72,55,30.13,29.90,19,7,24,0.00
2013-9-8,77.3,68.7,58.6,67.0,59.5,46.0,91,73,50,30.08,29.76,16,6,20,0.00
2013-9-9,65.9,59.7,48.8,56.0,49.8,45.0,92,71,51,30.25,30.08,11,3,14,0.00
2013-9-10,71.6,67.5,62.6,68.0,63.0,56.0,95,85,75,30.20,30.09,15,8,22,0.00
2013-9-11,78.4,73.1,69.3,74.0,70.9,68.0,97,92,85,30.12,30.01,16,10,20,0.00
2013-9-12,74.1,71.1,68.5,71.0,69.7,68.0,98,95,89,30.03,29.72,21,10,26,0.00
2013-9-13,75.1,70.2,64.4,70.0,67.7,61.0,98,92,79,29.72,29.57,12,5,16,0.01
2013-9-14,68.4,63.7,60.2,61.0,57.7,54.0,90,81,71,30.05,29.73,12,4,15,0.01
2013-9-15,66.6,60.5,55.1,57.0,53.7,52.0,92,79,63,30.17,30.05,12,3,15,0.00
2013-9-16,66.3,62.0,55.3,62.0,57.2,48.0,94,84,67,30.18,30.03,9,3,16,0.01
2013-9-17,59.1,53.0,40.9,44.0,42.1,39.0,94,68,51,30.40,30.35,14,4,21,0.00
2013-9-18,67.6,55.7,39.3,55.0,46.4,38.0,98,75,41,30.36,30.18,11,2,13,0.00
2013-9-19,70.1,63.2,56.9,60.0,57.3,55.0,96,82,63,30.18,30.07,14,5,19,0.00
2013-9-20,74.0,62.3,50.8,64.0,58.2,50.0,99,88,52,30.11,30.04,10,3,13,0.01
2013-9-21,73.1,64.0,48.7,67.0,61.4,48.0,99,91,79,30.08,29.79,13,4,19,0.00
2013-9-22,69.7,68.5,66.8,68.0,66.8,66.0,97,94,90,29.79,29.67,16,8,20,0.01
2013-10-4,66.3,59.1,57.4,59.0,52.2,-99.9,95,85,75,30.08,0.00,6,-32,7,0.00
2013-10-5,69.4,62.1,56.0,63.0,59.6,55.0,97,92,77,30.13,30.05,5,1,7,0.15
2013-10-6,64.5,60.4,53.0,63.0,57.1,51.0,98,89,65,30.21,30.13,12,4,17,0.00
2013-10-7,71.7,67.9,64.6,70.0,66.9,63.0,98,96,92,30.13,29.88,19,7,24,0.06
2013-10-8,66.6,59.9,48.8,66.0,51.6,46.0,97,75,51,30.36,29.90,10,3,16,0.12
2013-10-9,61.8,55.9,48.7,51.0,46.8,-99.9,93,74,63,30.43,30.34,21,-5,25,0.00
2013-10-10,66.0,59.9,54.4,60.0,56.5,50.0,94,88,80,30.33,30.12,12,5,18,0.00
2013-10-11,68.3,62.0,56.6,62.0,58.8,53.0,96,89,79,30.12,30.06,14,4,15,0.00
2013-10-12,64.9,59.2,54.3,60.0,55.0,51.0,92,86,78,30.35,30.11,22,5,26,0.00
2013-10-13,60.6,54.3,42.3,52.0,48.0,41.0,95,80,67,30.42,30.33,19,4,21,0.00
2013-10-14,60.2,48.6,36.2,53.0,44.9,35.0,98,87,70,30.42,30.29,10,2,12,0.00
2013-10-15,65.8,52.1,39.9,57.0,45.7,39.0,98,82,40,30.29,30.18,11,2,12,0.00
2013-10-16,62.9,57.4,45.3,61.0,56.0,44.0,98,95,90,30.17,29.92,8,2,14,0.01
2013-10-17,65.2,61.7,57.7,62.0,60.0,57.0,97,94,88,29.93,29.78,11,5,15,0.00
2013-10-18,66.9,63.0,55.0,64.0,57.8,53.0,98,84,61,29.93,29.68,20,7,22,0.01
2013-10-19,62.8,56.9,44.2,57.0,48.5,42.0,94,75,60,30.02,29.79,9,3,17,0.00
2013-10-20,61.1,56.1,39.6,59.0,47.3,38.0,95,75,44,30.05,29.73,15,5,20,0.00
2013-10-21,63.6,51.8,36.2,50.0,42.3,-99.9,97,76,49,30.15,30.05,19,4,19,0.00
2013-10-22,65.2,55.2,42.8,58.0,50.8,41.0,97,85,71,30.04,29.74,12,3,13,0.00
2013-10-23,54.0,48.7,39.9,46.0,41.5,36.0,94,77,61,29.81,29.59,5,1,13,0.25
2013-10-24,52.9,49.4,45.6,42.0,35.7,29.0,87,61,42,29.93,29.66,17,7,25,0.00
2013-10-25,51.2,47.6,44.3,38.0,34.1,31.0,73,60,50,30.20,29.94,11,5,19,0.00
2013-10-26,57.9,50.2,32.7,46.0,38.6,31.0,93,66,53,30.21,29.92,28,11,35,0.00
2013-10-27,57.5,53.4,48.9,45.0,38.7,34.0,78,58,49,30.10,29.85,15,7,24,0.00
2013-10-28,57.9,49.6,32.7,44.0,37.6,30.0,92,65,52,30.34,30.10,20,5,28,0.00
2013-10-29,52.8,45.4,35.6,41.0,36.2,33.0,93,72,49,30.42,30.34,7,2,10,0.00
2013-10-30,58.1,47.5,33.0,50.0,42.4,32.0,96,83,66,30.40,30.22,10,2,16,0.00
2013-10-31,63.9,56.1,42.9,62.0,53.8,42.0,99,92,81,30.27,29.90,13,5,23,0.00
2013-11-1,67.7,63.8,61.1,65.0,61.9,59.0,97,93,87,29.89,29.58,25,14,41,0.05
2013-11-2,62.4,58.3,54.3,61.0,55.9,51.0,97,92,77,29.72,29.61,12,2,19,0.09
2013-11-3,57.9,47.3,39.6,51.0,41.1,26.0,92,80,56,30.38,29.71,14,5,21,0.01
2013-11-4,45.0,39.9,37.0,32.0,30.1,28.0,83,68,54,30.72,30.38,11,4,18,0.00
2013-11-5,49.8,41.4,33.3,38.0,34.2,31.0,95,76,62,30.71,30.56,6,1,10,0.00
2013-11-6,57.7,49.8,36.1,56.0,46.6,35.0,96,89,76,30.56,30.12,12,4,16,0.00
2013-11-7,62.6,57.3,46.9,62.0,55.7,39.0,99,94,73,30.11,29.70,19,9,25,0.92
2013-11-8,49.2,44.9,40.5,38.0,31.0,26.0,73,59,48,30.14,29.84,27,8,31,0.00
2013-11-9,50.2,43.3,38.6,41.0,29.9,25.0,70,60,47,30.24,30.09,21,6,21,0.00
2013-11-10,57.2,53.0,47.5,48.0,42.6,36.0,84,68,58,30.09,29.75,22,10,27,0.06
2013-11-11,55.1,48.4,43.2,46.0,35.9,30.0,73,62,49,30.12,29.91,24,11,38,0.00
2013-11-12,55.9,40.1,30.8,48.0,33.2,21.0,96,78,58,30.20,29.92,20,7,26,0.06
2013-11-13,37.9,33.4,28.8,23.0,19.7,16.0,71,58,46,30.30,30.20,13,5,19,0.00
2013-11-14,51.9,46.4,36.9,40.0,33.4,23.0,78,61,45,30.25,30.10,20,10,31,0.00
2013-11-15,58.2,53.9,50.5,51.0,43.1,31.0,87,68,45,30.25,30.19,18,8,23,0.00
2013-11-16,58.1,49.8,35.7,48.0,40.5,-99.9,97,74,48,30.35,30.24,11,-7,14,0.00
2013-11-17,58.8,52.0,35.6,59.0,50.3,34.0,99,94,78,30.35,29.90,13,4,17,0.09
2013-11-18,61.8,58.9,54.4,62.0,54.3,41.0,99,86,59,29.88,29.61,22,10,40,0.33
2013-11-19,54.1,44.1,35.1,39.0,28.0,22.0,62,54,46,30.29,29.70,17,7,25,0.00
2013-11-20,40.7,34.4,28.8,25.0,21.0,19.0,73,59,44,30.62,30.30,12,4,18,0.00
2013-11-21,47.1,38.0,27.0,37.0,31.7,24.0,93,79,58,30.64,30.43,9,1,14,0.00
2013-11-22,54.8,50.7,39.3,54.0,48.3,36.0,98,91,79,30.43,29.85,17,4,20,0.13
2013-11-23,53.6,45.5,34.8,52.0,31.7,19.0,95,61,36,29.90,29.80,18,8,30,0.00
2013-11-24,34.4,27.0,24.6,17.0,7.3,-99.9,56,45,31,30.23,29.83,24,2,38,0.00
2013-11-25,42.8,29.1,22.1,35.0,11.6,2.0,75,49,28,30.41,30.23,22,8,30,0.00
2013-11-26,49.4,44.5,41.8,49.0,37.2,29.0,97,76,56,30.37,30.06,17,6,25,0.07
2013-11-27,61.0,54.0,41.1,61.0,53.6,37.0,99,98,85,30.04,29.16,33,12,40,1.19
2013-11-28,41.1,34.8,29.3,37.0,21.6,13.0,85,60,44,30.48,29.53,30,9,34,0.00
2013-11-29,36.4,31.7,27.4,20.0,16.9,13.0,64,55,47,30.75,30.48,9,3,16,0.00
2013-11-30,40.8,32.2,25.1,32.0,22.9,12.0,87,69,55,30.78,30.49,12,3,14,0.00
2013-12-1,49.5,46.6,40.9,49.0,42.6,32.0,99,86,70,30.48,30.00,14,5,18,0.01
2013-12-2,46.3,41.0,39.1,46.0,40.2,38.0,99,97,94,30.00,29.91,6,2,11,0.00
2013-12-3,49.1,42.1,37.8,39.0,38.0,35.0,97,86,63,29.96,29.82,12,4,17,0.00
2013-12-4,45.7,37.9,29.8,37.0,33.0,29.0,97,83,63,30.23,29.97,8,2,17,0.00
2013-12-5,54.6,47.9,30.2,54.0,46.7,29.0,99,96,89,30.24,30.00,13,4,16,0.01
2013-12-6,58.7,51.4,38.1,58.0,50.8,37.0,99,97,94,30.13,29.93,15,6,19,0.22
2013-12-7,41.5,37.2,32.7,38.0,32.3,22.0,99,83,63,30.48,30.06,16,4,19,0.13
2013-12-8,34.3,32.6,29.6,27.0,22.5,17.0,77,66,57,30.60,30.47,9,3,18,0.00
2013-12-9,48.9,40.8,32.5,49.0,39.8,28.0,99,96,78,30.49,29.88,21,6,25,0.35
2013-12-10,39.8,35.7,29.9,38.0,32.9,24.0,98,90,76,30.07,29.80,13,3,27,0.02
2013-12-11,34.9,32.5,29.5,28.0,23.4,18.0,84,69,57,30.28,30.07,18,8,28,0.00
2013-12-12,33.5,26.5,22.5,20.0,12.0,5.0,72,55,39,30.28,30.14,15,5,25,0.00
2013-12-13,33.3,29.7,25.2,22.0,17.2,14.0,86,61,48,30.37,30.06,17,8,28,0.00
2013-12-14,33.5,25.4,19.0,33.0,19.8,6.0,98,80,56,30.58,30.11,22,7,30,0.00
2013-12-15,52.6,38.9,31.8,52.0,36.2,25.0,99,90,68,30.09,29.36,27,10,37,0.67
2013-12-16,36.0,30.9,26.1,27.0,16.5,10.0,73,56,45,30.25,29.81,19,7,26,0.00
2013-12-17,42.6,27.9,16.2,42.0,22.3,11.0,98,80,56,30.29,29.89,14,5,22,0.10
2013-12-18,35.9,31.7,23.7,30.0,25.7,22.0,97,80,59,30.15,29.80,19,8,25,0.00
2013-12-19,48.6,41.6,34.7,39.0,32.6,26.0,79,71,64,30.17,30.01,28,9,31,0.00
2013-12-20,53.6,46.0,32.0,51.0,42.4,31.0,97,87,71,30.17,30.00,20,8,28,0.00
2013-12-21,56.5,53.8,51.8,54.0,51.8,50.0,98,92,86,30.05,29.95,19,12,27,0.00
2013-12-22,61.2,57.3,53.9,59.0,55.8,53.0,98,95,80,30.02,29.89,26,15,36,0.00
2013-12-23,60.3,47.7,38.1,57.0,46.6,37.0,98,96,84,30.08,29.94,13,4,19,0.37
2013-12-24,40.4,35.3,30.7,40.0,29.1,21.0,98,79,61,30.22,30.02,13,5,19,0.12
2013-12-25,31.2,22.8,16.3,24.0,12.3,9.0,87,65,52,30.59,30.23,21,5,23,0.00
2013-12-26,42.0,35.5,18.6,39.0,31.1,16.0,96,84,73,30.53,30.07,15,5,25,0.17
2013-12-27,37.7,35.3,32.9,28.0,25.4,22.0,77,67,57,30.31,30.24,13,6,24,0.00
2013-12-28,50.1,43.2,32.3,42.0,35.3,25.0,88,74,61,30.29,30.06,25,10,33,0.00
2013-12-29,55.6,47.4,41.1,55.0,44.2,39.0,99,88,75,30.10,29.34,33,9,36,0.87
2013-12-30,45.1,38.2,26.7,41.0,30.9,17.0,98,76,48,30.16,29.50,17,6,23,0.00
2013-12-31,31.0,26.3,21.9,22.0,16.8,10.0,75,67,60,30.23,30.07,14,5,24,0.00
2014-1-1,30.9,27.6,24.9,19.0,13.3,9.0,76,55,44,30.41,30.23,18,6,25,0.00
2014-1-2,33.1,29.8,27.4,32.0,26.8,16.0,97,89,61,30.36,29.66,25,8,31,0.00